Probability
1 0 0 0 0 0 0 0 0 1 2 3 3 3 2 2 1 4 7 11 24 43 55 51 38 23 11 6 3 2 1 0 0 1 2 4 5 6 7 8 9 10 9 7
2 1 1 1 1 1 0 0 0 1 3 3 3 3 2 1 1 3 5 10 22 40 56 59 48 34 22 15 11 9 6 3 3 4 5 5 5 5 6 9 12 14 12 9
3 3 3 3 3 2 1 0 0 2 3 3 3 3 3 2 2 2 4 8 19 35 55 66 62 52 42 32 24 21 16 12 11 12 12 11 9 9 12 15 17 17 15 11
3 3 4 4 4 3 1 1 1 2 2 3 3 3 3 3 2 2 3 7 15 28 44 57 61 62 58 46 34 28 25 23 21 19 19 19 19 20 25 27 23 18 13 10
3 3 3 4 3 3 2 2 3 3 2 2 3 3 3 3 3 4 6 9 15 20 29 46 60 69 68 55 41 33 31 32 29 26 26 26 27 31 34 32 27 18 10 8
3 3 3 4 3 3 3 4 4 5 3 3 4 5 5 5 7 10 14 16 21 23 32 55 76 82 78 67 56 47 42 42 39 36 35 32 34 38 36 31 24 15 8 7
4 4 4 5 4 3 4 5 4 4 4 5 6 8 10 12 16 22 26 28 33 41 53 73 89 92 87 81 74 67 58 52 48 45 40 35 37 41 38 29 19 12 10 8
9 10 12 10 7 5 5 5 4 3 4 7 11 14 19 24 28 33 40 42 47 59 71 81 89 91 89 87 84 78 70 61 55 50 41 34 37 40 37 28 18 13 12 10
15 18 19 14 9 6 5 4 4 3 5 8 12 19 26 31 34 38 44 47 52 63 72 79 84 88 88 87 85 80 73 66 59 53 46 40 38 37 33 25 17 13 12 10
19 20 19 14 7 4 3 3 3 3 4 6 10 16 23 26 28 30 33 36 41 49 59 66 72 77 81 82 82 79 73 66 58 52 50 48 43 37 32 24 16 13 12 9
33 32 26 16 5 1 1 1 1 1 2 3 5 8 12 15 16 16 17 19 24 30 39 46 53 59 65 70 73 73 67 57 49 43 43 45 41 33 27 21 14 10 8 6
53 44 33 19 5 0 0 0 0 0 1 1 1 2 4 5 6 6 6 8 11 15 20 28 36 43 50 56 60 61 58 48 38 33 33 33 31 24 17 12 7 4 3 2
49 36 24 14 4 0 0 0 0 0 0 0 0 1 1 1 1 1 2 3 5 6 10 17 25 33 38 41 45 49 47 38 30 25 23 23 22 17 11 7 6 4 2 0
27 20 13 7 2 0 0 0 0 0 0 0 0 0 0 0 0 0 0 1 2 4 7 11 16 20 21 23 27 32 31 26 22 21 18 16 15 13 10 9 10 11 7 3
11 10 6 3 1 0 0 0 0 0 0 0 0 0 0 0 0 0 0 0 1 3 5 6 7 7 7 8 11 15 17 16 15 15 12 10 9 8 6 7 9 12 10 6
2 2 1 0 0 0 0 0 0 0 0 0 0 0 0 0 0 0 0 0 1 3 3 4 3 1 1 1 4 6 8 8 7 7 6 5 5 4 4 5 7 8 7 6
0 0 0 0 0 0 0 0 0 0 0 0 0 0 0 0 0 0 0 0 1 1 2 3 2 1 0 1 2 3 3 2 2 2 3 3 4 3 3 5 6 6 4 4
0 0 0 0 0 0 0 0 0 0 0 0 0 0 0 0 0 0 1 1 1 1 2 2 1 0 1 1 2 2 2 2 2 3 3 3 3 3 3 4 5 4 3 3
0 0 0 0 0 0 0 0 0 0 0 0 0 0 0 0 0 1 2 2 2 2 3 2 1 1 2 3 3 2 2 2 3 3 3 3 3 3 3 3 4 3 3 3
0 0 0 0 0 0 0 0 0 0 0 0 0 0 0 1 1 2 3 3 3 3 3 3 2 3 3 3 2 2 2 3 3 3 3 3 3 3 3 3 3 3 3 3
0 0 0 0 0 0 0 0 0 0 0 0 0 0 1 2 3 3 3 4 4 3 3 2 3 3 2 2 2 2 3 3 3 3 3 3 3 3 3 3 3 3 3 3
0 0 0 0 0 0 0 0 0 0 0 1 1 1 2 3 3 3 4 4 4 3 2 2 2 1 1 2 2 3 3 3 3 3 3 3 3 2 3 3 2 2 2 1
0 0 0 0 0 0 0 0 1 1 1 2 2 3 3 3 3 3 3 4 3 2 2 2 1 0 1 2 3 3 3 3 3 3 3 3 3 3 2 1 1 1 1 1
0 0 0 0 1 1 1 1 2 2 3 3 3 3 3 3 3 3 3 3 3 2 2 2 1 0 1 2 3 2 2 2 2 2 1 1 2 2 1 0 0 0 1 2
1 1 1 1 2 2 2 3 3 3 3 3 3 3 3 3 3 3 4 3 3 3 3 3 1 1 1 2 1 1 1 1 1 1 0 0 1 1 0 0 0 1 2 2
2 2 2 3 3 3 3 3 3 3 3 2 2 3 3 3 3 4 4 4 3 3 3 2 1 1 1 1 0 0 0 0 0 0 0 0 0 0 0 0 0 1 1 1
3 3 3 3 3 3 3 3 3 3 3 2 2 3 3 3 3 4 4 4 3 3 3 2 1 0 0 0 0 0 0 0 0 0 0 0 0 0 0 0 0 0 1 0
Wind_Speed
14 13 12 11 11 8 7 7 8 6 5 2 1 1 1 2 4 5 6 7 7 7 8 7 7 7 6 6 6 6 5 5 5 5 5 4 4 4 4 5 6 5 5 5
15 16 13 13 11 9 7 6 6 5 3 4 3 2 1 1 1 4 5 7 8 9 10 9 8 8 8 7 7 7 6 6 5 4 4 4 4 4 5 5 5 5 6 6
13 12 10 11 8 10 6 5 5 3 2 2 2 2 2 3 4 3 5 6 7 9 10 10 10 9 9 8 8 8 8 7 6 5 5 5 5 4 4 4 5 5 6 6
12 12 13 3 4 7 6 4 4 4 3 3 3 2 1 3 4 3 2 3 5 7 9 11 11 11 9 10 9 9 9 8 7 6 6 4 4 4 4 4 5 5 6 6
10 12 9 4 3 6 7 7 10 8 8 8 8 5 6 7 4 2 3 2 3 5 8 10 11 11 11 10 10 10 10 8 7 6 5 4 4 4 4 4 5 6 6 7
11 13 11 2 4 4 4 1 10 11 10 10 10 6 4 7 6 5 3 2 1 4 5 6 8 9 10 11 10 10 9 8 7 6 5 5 4 4 5 4 5 6 7 7
11 10 3 8 4 2 0 2 8 8 9 11 10 9 9 10 9 8 6 4 2 1 2 3 5 7 8 8 8 7 6 6 6 6 6 6 5 5 5 6 6 7 7 7
8 6 1 7 8 5 3 4 8 10 11 11 10 11 12 12 12 12 11 10 8 4 2 1 2 4 5 5 4 4 5 6 6 6 7 6 6 6 6 6 7 8 8 9
1 3 7 7 6 3 4 7 9 11 12 11 12 12 14 14 13 13 14 13 12 10 7 5 2 1 2 3 3 3 4 5 5 6 6 5 6 7 7 6 8 8 7 7
4 10 10 8 8 7 8 9 10 11 12 13 13 13 13 13 13 13 13 12 12 12 10 8 6 4 2 1 2 3 4 5 5 6 7 7 6 7 7 7 7 7 6 6
5 10 11 9 8 9 10 11 11 12 13 13 13 13 12 11 12 11 11 11 11 10 9 9 7 6 4 4 2 3 4 5 6 8 8 7 8 8 9 8 8 7 6 5
4 6 8 8 7 9 10 10 11 11 12 13 13 12 12 11 10 10 10 10 10 10 10 10 8 6 5 3 3 4 6 6 7 7 7 8 8 9 14 15 15 16 15 11
7 7 10 10 9 9 10 10 11 11 11 11 11 11 11 10 9 9 9 10 10 10 10 9 8 7 7 6 5 6 7 8 8 9 9 8 8 7 7 9 15 15 16 16
9 8 10 10 11 11 10 10 10 10 10 9 9 9 9 9 9 9 9 8 9 9 9 9 9 8 9 9 8 8 10 11 10 9 9 10 9 8 7 7 6 5 11 18
9 10 11 11 10 10 9 9 8 9 9 9 9 9 10 10 10 10 9 9 9 9 10 10 9 8 9 10 10 11 11 10 9 10 10 10 8 8 8 8 6 6 5 6
11 11 11 10 8 7 7 8 8 8 9 10 10 11 11 11 10 10 9 10 9 10 10 9 8 9 10 10 11 11 10 14 13 11 11 10 9 8 7 6 6 5 5 5
9 8 7 6 6 6 7 8 9 10 11 11 12 12 12 12 11 10 10 11 10 9 9 8 7 9 11 11 12 11 12 13 16 13 11 9 8 7 6 5 5 5 6 5
10 8 6 4 5 6 7 9 10 11 11 12 13 12 12 12 11 10 10 11 10 10 9 8 9 11 12 11 10 10 11 12 12 11 10 9 8 7 6 5 6 7 7 5
5 3 2 3 5 6 8 9 10 11 11 11 12 12 11 11 11 10 10 10 10 9 8 9 11 11 11 10 12 10 12 13 12 10 9 9 8 7 6 5 6 6 6 5
1 2 4 7 8 9 10 10 11 11 11 11 11 11 11 12 11 11 11 10 7 6 7 9 10 10 9 10 14 12 12 13 13 12 10 8 7 7 6 6 5 6 6 5
4 6 8 9 10 11 11 11 11 12 12 11 11 11 11 11 12 11 10 10 5 4 8 10 7 7 9 11 14 12 11 11 11 11 10 9 8 7 6 6 5 5 5 4
7 8 10 11 11 11 11 11 12 13 12 11 12 13 13 12 12 10 8 6 5 4 6 8 7 8 11 13 11 11 11 10 10 9 9 8 8 8 7 7 5 5 5 6
8 9 11 11 12 12 12 12 13 12 12 12 12 13 12 10 10 10 9 5 6 6 7 6 7 9 13 11 9 9 10 10 10 9 8 8 8 8 7 7 6 6 6 6
10 10 11 11 12 13 13 13 12 10 12 12 12 10 9 9 8 8 7 4 5 6 6 5 6 9 11 8 8 9 9 9 9 9 9 8 8 8 8 8 7 7 7 8
11 11 12 12 12 11 11 11 12 11 11 9 10 10 9 8 9 9 8 7 6 7 6 4 4 7 8 7 8 8 8 8 9 9 8 8 8 8 8 8 8 8 7 7
10 10 9 10 10 9 10 10 9 9 9 9 8 8 9 8 9 8 6 8 9 7 6 6 6 6 7 8 8 8 8 8 9 8 9 9 10 9 9 9 11 8 7 7
11 10 7 8 8 8 8 9 9 9 9 8 8 9 9 9 8 8 8 7 6 7 7 7 7 7 7 8 8 8 8 8 8 9 9 8 8 8 9 10 8 7 7 7
Wind_Direction
293 284 267 264 265 262 261 270 281 294 292 325 63 105 134 169 177 186 175 176 174 164 159 165 170 171 178 184 181 182 181 194 202 205 215 226 240 248 253 259 266 263 266 268
290 289 298 290 285 285 278 287 290 291 321 48 53 49 33 338 235 200 190 192 186 177 173 177 182 183 186 190 184 177 190 204 205 206 218 228 236 244 248 251 259 264 266 270
283 297 300 287 312 306 280 265 279 300 10 17 359 37 7 321 287 245 212 206 195 184 181 182 186 187 191 190 187 185 193 204 205 205 218 227 245 254 261 267 268 265 264 265
279 283 279 292 335 317 320 333 346 354 10 23 21 47 336 293 291 293 275 234 201 189 184 184 187 189 191 191 191 194 196 202 204 206 216 220 231 248 256 259 262 265 266 268
273 277 272 291 355 358 355 354 5 18 22 18 10 3 37 24 351 318 282 257 202 203 205 191 191 188 187 196 194 199 202 201 203 203 209 218 235 246 253 256 260 262 264 259
260 274 292 337 148 200 232 8 11 23 9 357 352 345 27 19 358 343 330 325 230 224 222 193 187 184 186 197 199 203 203 197 194 191 197 212 228 237 247 252 260 264 262 257
261 277 339 41 65 189 189 32 347 7 2 0 8 357 352 354 360 2 354 345 329 258 234 209 183 181 190 196 201 200 197 194 189 186 193 206 220 226 233 245 255 260 265 264
251 271 122 23 30 42 42 16 8 11 14 12 10 6 8 11 14 13 9 3 359 0 334 296 162 172 191 203 202 194 195 195 193 191 211 215 212 222 230 240 253 257 256 256
351 105 116 105 103 83 64 46 30 26 24 24 24 25 26 26 23 21 18 14 10 9 5 5 19 138 210 214 208 211 207 207 208 207 212 219 223 233 237 237 247 254 256 259
77 109 116 111 113 94 72 59 49 42 38 37 35 35 33 29 25 24 21 17 15 9 6 6 3 3 346 282 221 222 227 223 226 228 229 228 229 238 241 243 247 250 254 265
125 124 114 83 78 80 73 64 55 49 45 41 38 36 35 33 26 21 20 16 14 9 2 359 1 356 356 354 337 277 260 255 255 251 246 241 236 236 239 242 243 248 256 260
86 113 107 106 88 79 77 70 63 54 47 41 34 29 28 25 20 14 13 11 7 3 358 353 351 350 349 342 318 293 279 268 264 262 256 249 246 245 233 234 240 231 230 237
75 79 100 104 85 72 71 67 64 56 45 36 28 19 17 12 9 5 5 6 1 356 350 348 348 350 351 350 336 311 298 291 284 279 274 267 259 255 256 244 237 236 234 234
94 91 89 80 73 61 54 51 49 46 33 24 15 6 1 355 352 351 351 351 348 344 345 350 350 357 360 352 339 321 305 294 286 279 276 273 269 266 265 263 259 246 235 232
96 100 97 84 70 59 46 35 27 21 10 4 359 353 347 341 338 338 342 342 343 339 344 342 342 356 357 344 332 318 306 296 290 286 281 277 271 266 263 263 262 264 265 246
98 89 86 80 63 45 32 21 9 1 356 352 348 342 338 336 335 337 339 339 342 343 339 337 349 355 347 335 325 313 303 297 297 294 286 281 276 271 267 266 269 268 267 267
107 96 81 63 45 24 6 359 357 354 349 344 340 337 338 339 336 338 341 341 339 332 330 337 350 350 336 326 324 319 317 313 307 298 291 285 283 280 276 273 271 275 277 274
83 78 68 41 7 352 350 351 347 343 340 337 335 335 336 334 333 336 336 334 328 322 327 342 354 338 326 332 336 325 319 313 311 310 309 306 299 287 281 279 277 279 279 269
94 81 24 346 338 339 342 336 334 335 333 331 329 329 329 327 327 327 325 320 314 314 332 344 339 325 324 345 345 324 318 315 315 312 308 305 300 297 293 288 290 293 290 289
39 325 331 330 333 336 331 331 332 329 326 323 322 323 321 320 320 319 314 307 312 334 335 330 323 323 334 350 339 319 318 321 321 317 313 309 304 301 298 297 297 295 292 302
320 325 324 326 330 329 328 328 325 319 315 315 316 315 315 315 311 306 300 306 327 352 325 315 321 351 350 337 317 317 325 327 323 322 323 324 318 312 309 308 310 312 316 328
326 324 323 324 323 321 321 317 312 308 308 311 314 313 310 304 302 302 299 305 323 357 325 330 353 6 344 324 319 324 328 330 327 324 325 325 323 321 319 320 329 337 338 338
323 322 318 315 313 312 310 307 304 306 309 309 304 299 297 301 303 304 310 331 345 352 335 358 10 355 334 323 330 333 333 335 330 325 325 326 329 331 332 337 342 344 342 335
314 311 308 307 305 302 299 299 303 303 298 293 292 298 306 307 312 319 330 9 19 351 354 44 17 350 331 335 341 340 339 337 333 332 335 337 337 337 337 339 342 341 336 332
301 300 297 297 296 296 303 304 301 296 297 304 313 322 324 327 330 336 347 5 22 2 6 46 14 349 344 349 348 345 341 342 342 337 336 337 336 335 335 337 338 335 332 330
292 290 293 295 294 293 293 295 302 311 315 318 324 329 332 337 344 356 4 10 26 25 11 9 9 5 1 358 354 350 347 344 343 344 343 340 339 339 337 337 332 331 329 327
300 299 296 297 305 310 316 317 316 316 320 328 333 335 338 346 357 4 10 20 22 20 19 18 15 8 4 3 1 357 354 350 348 344 341 339 336 333 332 330 328 327 328 324